When you browse on this site, cookies collect data to enhance your experience and personalize the content and advertising you see.
Visit our Privacy Policy to learn more. By continuing to use the site, you agree to this use of cookies and data.
  • In Belgium
  • List of Countries
  • For 7 days
  • Water Temperature
  • Satellite Maps
  • Weather Map
  • Weather Widgets
  • user-avatar
    Login

    Hourly Weather Begijnendijk

    Today, 15 December, Saturday

    Time Temperature Precipitation Wind Pressure Humidity
    00:00 +1°C° 0 mm 1 mps 767 mmHg 68%
    01:00 +1°C° 0 mm 1 mps 767 mmHg 67%
    02:00 +1°C° 0 mm 1 mps 767 mmHg 67%
    03:00 -1°C° 0 mm 2 mps 767 mmHg 66%
    04:00 -2°C° 0 mm 2 mps 767 mmHg 67%
    05:00 -2°C° 0 mm 2 mps 767 mmHg 69%
    06:00 -2°C° 0 mm 2 mps 767 mmHg 71%
    07:00 -2°C° 0 mm 2 mps 767 mmHg 70%
    08:00 -2°C° 0 mm 3 mps 767 mmHg 68%
    09:00 -2°C° 0 mm 3 mps 766 mmHg 67%
    10:00 -2°C° 0 mm 4 mps 766 mmHg 63%
    11:00 -1°C° 0 mm 4 mps 765 mmHg 58%
    12:00 0°C° 0 mm 5 mps 765 mmHg 54%
    13:00 0°C° 0 mm 5 mps 764 mmHg 55%
    14:00 -1°C° 0 mm 4 mps 763 mmHg 56%
    15:00 -1°C° 0 mm 4 mps 763 mmHg 57%
    16:00 -1°C° 0 mm 5 mps 762 mmHg 57%
    17:00 -1°C° 0 mm 5 mps 761 mmHg 57%
    18:00 -2°C° 0 mm 6 mps 760 mmHg 57%
    19:00 -2°C° 0.4 mm 6 mps 760 mmHg 59%
    20:00 -2°C° 0.4 mm 6 mps 759 mmHg 61%
    21:00 -1°C° 0.4 mm 6 mps 758 mmHg 62%
    22:00 -1°C° 0.9 mm 7 mps 757 mmHg 69%
    23:00 -1°C° 0.9 mm 7 mps 757 mmHg 76%

    Tomorrow, 16 December, Sunday

    Time Temperature Precipitation Wind Pressure Humidity
    00:00 -1°C° 0.9 mm 7 mps 756 mmHg 83%
    01:00 -1°C° 0.4 mm 7 mps 756 mmHg 85%
    02:00 -1°C° 0.4 mm 6 mps 755 mmHg 88%
    03:00 0°C° 0.4 mm 5 mps 754 mmHg 90%
    04:00 0°C° 0.1 mm 5 mps 754 mmHg 92%
    05:00 0°C° 0.1 mm 4 mps 754 mmHg 93%
    06:00 0°C° 0.1 mm 4 mps 754 mmHg 95%
    07:00 +1°C° 0 mm 4 mps 755 mmHg 95%
    08:00 +2°C° 0 mm 3 mps 755 mmHg 96%
    09:00 +2°C° 0 mm 3 mps 755 mmHg 97%
    10:00 +3°C° 0 mm 3 mps 755 mmHg 96%
    11:00 +3°C° 0 mm 3 mps 755 mmHg 95%
    12:00 +4°C° 0 mm 3 mps 756 mmHg 94%
    13:00 +3°C° 0.1 mm 3 mps 756 mmHg 95%
    14:00 +3°C° 0.1 mm 4 mps 756 mmHg 95%
    15:00 +3°C° 0.1 mm 4 mps 756 mmHg 96%
    16:00 +3°C° 0 mm 4 mps 757 mmHg 96%
    17:00 +3°C° 0 mm 4 mps 757 mmHg 96%
    18:00 +3°C° 0 mm 4 mps 757 mmHg 96%
    19:00 +3°C° 0 mm 4 mps 758 mmHg 95%
    20:00 +3°C° 0 mm 4 mps 758 mmHg 95%
    21:00 +3°C° 0 mm 4 mps 758 mmHg 94%
    22:00 +3°C° 0 mm 4 mps 758 mmHg 94%
    23:00 +3°C° 0 mm 4 mps 758 mmHg 94%

    Day after tomorrow, 17 December, Monday

    Time Temperature Precipitation Wind Pressure Humidity
    00:00 +1°C° 0 mm 4 mps 758 mmHg 94%
    01:00 +3°C° 0.2 mm 4 mps 758 mmHg 94%
    02:00 +3°C° 0.2 mm 4 mps 758 mmHg 94%
    03:00 +3°C° 0.2 mm 3 mps 758 mmHg 95%
    04:00 +3°C° 0.4 mm 3 mps 759 mmHg 95%
    05:00 +3°C° 0.4 mm 3 mps 759 mmHg 95%
    06:00 +3°C° 0.4 mm 3 mps 760 mmHg 95%
    07:00 +3°C° 0 mm 3 mps 761 mmHg 95%
    08:00 +3°C° 0 mm 3 mps 761 mmHg 95%
    09:00 +3°C° 0 mm 3 mps 762 mmHg 95%
    10:00 +4°C° 0 mm 3 mps 762 mmHg 93%
    11:00 +5°C° 0 mm 3 mps 763 mmHg 90%
    12:00 +7°C° 0 mm 3 mps 763 mmHg 87%
    13:00 +5°C° 0 mm 3 mps 764 mmHg 88%
    14:00 +5°C° 0 mm 3 mps 764 mmHg 90%
    15:00 +5°C° 0 mm 3 mps 765 mmHg 91%
    16:00 +4°C° 0 mm 3 mps 765 mmHg 92%
    17:00 +4°C° 0 mm 3 mps 766 mmHg 93%
    18:00 +3°C° 0 mm 3 mps 766 mmHg 94%
    19:00 +3°C° 0 mm 3 mps 766 mmHg 94%
    20:00 +3°C° 0 mm 4 mps 767 mmHg 94%
    21:00 +3°C° 0 mm 4 mps 767 mmHg 94%
    22:00 +3°C° 0 mm 4 mps 767 mmHg 94%
    23:00 +3°C° 0 mm 4 mps 767 mmHg 93%

    18 December, Tuesday

    Time Temperature Precipitation Wind Pressure Humidity
    00:00 +3°C° 0 mm 4 mps 767 mmHg 93%
    01:00 +3°C° 0 mm 4 mps 767 mmHg 93%
    02:00 +3°C° 0 mm 4 mps 767 mmHg 93%
    03:00 +3°C° 0 mm 4 mps 767 mmHg 93%
    04:00 +3°C° 0 mm 4 mps 766 mmHg 93%
    05:00 +3°C° 0 mm 4 mps 766 mmHg 93%
    06:00 +2°C° 0 mm 5 mps 766 mmHg 92%
    07:00 +2°C° 0 mm 5 mps 766 mmHg 91%
    08:00 +2°C° 0 mm 5 mps 766 mmHg 90%
    09:00 +3°C° 0 mm 5 mps 766 mmHg 89%
    10:00 +4°C° 0 mm 6 mps 765 mmHg 83%
    11:00 +5°C° 0 mm 6 mps 764 mmHg 77%
    12:00 +7°C° 0 mm 6 mps 763 mmHg 71%
    13:00 +5°C° 0 mm 6 mps 763 mmHg 71%
    14:00 +6°C° 0 mm 5 mps 762 mmHg 70%
    15:00 +5°C° 0 mm 5 mps 761 mmHg 70%
    16:00 +5°C° 0 mm 5 mps 761 mmHg 69%
    17:00 +4°C° 0 mm 6 mps 760 mmHg 67%
    18:00 +3°C° 0 mm 6 mps 760 mmHg 66%
    19:00 +3°C° 0 mm 6 mps 759 mmHg 66%
    20:00 +3°C° 0 mm 6 mps 759 mmHg 66%
    21:00 +3°C° 0 mm 6 mps 758 mmHg 66%
    22:00 +4°C° 0 mm 6 mps 758 mmHg 68%
    23:00 +4°C° 0 mm 6 mps 758 mmHg 70%

    19 December, Wednesday

    Time Temperature Precipitation Wind Pressure Humidity
    00:00 +4°C° 0 mm 6 mps 757 mmHg 72%
    01:00 +4°C° 0.1 mm 6 mps 757 mmHg 75%
    02:00 +5°C° 0.1 mm 6 mps 757 mmHg 78%
    03:00 +5°C° 0.1 mm 6 mps 757 mmHg 81%
    04:00 +5°C° 0.4 mm 6 mps 757 mmHg 83%
    05:00 +5°C° 0.4 mm 6 mps 757 mmHg 85%
    06:00 +5°C° 0.4 mm 6 mps 757 mmHg 87%
    07:00 +6°C° 0.1 mm 5 mps 758 mmHg 88%
    08:00 +6°C° 0.1 mm 5 mps 758 mmHg 89%
    09:00 +6°C° 0.1 mm 4 mps 759 mmHg 90%
    10:00 +7°C° 0 mm 4 mps 759 mmHg 89%
    11:00 +8°C° 0 mm 3 mps 759 mmHg 88%
    12:00 +9°C° 0 mm 3 mps 759 mmHg 87%
    13:00 +8°C° 0 mm 3 mps 759 mmHg 89%
    14:00 +8°C° 0 mm 2 mps 759 mmHg 91%
    15:00 +7°C° 0 mm 2 mps 759 mmHg 92%
    16:00 +7°C° 0 mm 2 mps 759 mmHg 93%
    17:00 +7°C° 0 mm 2 mps 760 mmHg 93%
    18:00 +6°C° 0 mm 2 mps 760 mmHg 94%
    19:00 +6°C° 0 mm 2 mps 760 mmHg 94%
    20:00 +7°C° 0 mm 1 mps 760 mmHg 94%
    21:00 +7°C° 0 mm 1 mps 760 mmHg 94%
    22:00 +6°C° 0.1 mm 2 mps 760 mmHg 94%
    23:00 +6°C° 0.1 mm 2 mps 760 mmHg 94%

    20 December, Thursday

    Time Temperature Precipitation Wind Pressure Humidity
    00:00 +6°C° 0.1 mm 2 mps 760 mmHg 94%
    01:00 +6°C° 0 mm 2 mps 760 mmHg 94%
    02:00 +5°C° 0 mm 2 mps 760 mmHg 94%
    03:00 +5°C° 0 mm 2 mps 761 mmHg 94%
    04:00 +5°C° 0 mm 2 mps 761 mmHg 94%
    05:00 +5°C° 0 mm 2 mps 761 mmHg 95%
    06:00 +5°C° 0 mm 2 mps 761 mmHg 95%
    07:00 +5°C° 0 mm 2 mps 762 mmHg 95%
    08:00 +5°C° 0 mm 2 mps 762 mmHg 95%
    09:00 +5°C° 0 mm 2 mps 762 mmHg 95%
    10:00 +6°C° 0 mm 2 mps 762 mmHg 92%
    11:00 +7°C° 0 mm 2 mps 763 mmHg 88%
    12:00 +8°C° 0 mm 2 mps 763 mmHg 85%
    13:00 +7°C° 0 mm 2 mps 763 mmHg 87%
    14:00 +7°C° 0 mm 2 mps 763 mmHg 89%
    15:00 +6°C° 0 mm 2 mps 763 mmHg 91%
    16:00 +6°C° 0 mm 2 mps 764 mmHg 92%
    17:00 +5°C° 0 mm 2 mps 764 mmHg 93%
    18:00 +4°C° 0 mm 3 mps 764 mmHg 93%
    19:00 +3°C° 0 mm 3 mps 765 mmHg 94%
    20:00 +3°C° 0 mm 3 mps 765 mmHg 94%
    21:00 +3°C° 0 mm 3 mps 765 mmHg 94%
    22:00 +3°C° 0 mm 3 mps 766 mmHg 94%
    23:00 +3°C° 0 mm 3 mps 766 mmHg 95%
    Show more